Location: Unspecified
(0.0000°N, 0.0000°E)
Time: 21:14:03
(UTC+00:00)

Explorer 7 - Pass Details

Date: 22 July 2019
Orbit: 485 x 680 km, 50.3° (Epoch: 20 August)

Event Time Altitude Azimuth Distance (km) Brightness Sun altitude
Rises 18:22:31 0° 224° (SW) 2,823 10.8 -3.8°
Reaches altitude 10° 18:24:54 10° 228° (SW) 1,885 10.0 -4.3°
Maximum altitude 18:29:06 55° 306° (NW) 664 7.7 -5.3°
Drops below altitude 10° 18:33:02 10° 25° (NNE) 1,762 9.4 -6.2°
Sets 18:35:12 0° 29° (NNE) 2,619 10.2 -6.7°
